Simultaneous Nadir Overpasses (SNOs) Predictions

Prediction of SNOs between METOP-A and NOAA-19 Satellite Orbit:

Table of predicted SNOs for the next 14.0 days since TLE Epoch: 8/12/2016
Index Date (METOP-A) Time (METOP-A) Lat,Lon (METOP-A) SZA (METOP-A ) Date (NOAA-19) Time (NOAA-19) Lat,Lon (NOAA-19) SZA (NOAA-19 ) Distance(km) Time Diff (sec)
1 08/12/2016 23:09:46 -76.28, 13.34 118.40 08/12/2016 23:10:13 -76.28, 13.40 118.40 1.49 27
2 08/13/2016 00:00:26 76.26,-179.39 61.60 08/13/2016 00:01:13 76.29,-179.38 61.62 2.62 47
3 08/13/2016 00:51:08 -76.26, -12.07 118.40 08/13/2016 00:52:15 -76.28, -12.11 118.38 2.34 67
4 08/13/2016 01:41:59 75.74, 153.49 61.10 08/13/2016 01:43:03 75.75, 157.05 61.11 97.73 64
5 08/23/2016 10:52:10 -76.37,-161.98 114.92 08/23/2016 10:51:04 -76.36,-161.88 114.93 2.90 66
6 08/23/2016 11:42:49 76.39, 5.44 65.12 08/23/2016 11:42:02 76.39, 5.27 65.12 4.33 47
7 08/23/2016 12:33:32 -76.35, 172.60 114.92 08/23/2016 12:33:06 -76.36, 172.61 114.90 1.92 26
8 08/23/2016 13:24:12 76.32, -20.14 65.08 08/23/2016 13:24:03 76.35, -20.07 65.10 3.16 9
9 08/23/2016 14:14:54 -76.32, 147.19 114.92 08/23/2016 14:15:07 -76.32, 147.27 114.92 2.28 13
10 08/23/2016 15:05:34 76.30, -45.55 65.08 08/23/2016 15:06:04 76.31, -45.41 65.08 3.67 30
11 08/23/2016 15:56:16 -76.30, 121.78 114.91 08/23/2016 15:57:09 -76.32, 121.76 114.90 1.84 53
12 08/23/2016 16:46:56 76.28, -70.96 65.08 08/23/2016 16:48:06 76.31, -70.92 65.11 2.82 70
